Home   Weather   Norfolk   Past weeks

Flag for USA Past Weather in Norfolk, Virginia, USA — Yesterday and Last 2 Weeks

Now
61 °F

Low clouds.


Feels Like: 61 °F
Forecast: 61 / 74 °F
Wind: 14 mph from Northwest

Location: Norfolk Naval Air Station

Current Time: Apr 26, 2017 at 6:15:50 am

Latest Report: Apr 26, 2017 at 4:59 am


Visibility: 10 mi

Pressure: 29.70 "Hg

Humidity: 93%

Dew Point: 59 °F

Location of NorfolkLocation

Past Weather in Norfolk — Graph

°F

Norfolk Temperature Yesterday

Maximum temperature yesterday: 77 °F (at 1:59 pm)
Minimum temperature yesterday: 60 °F (at 12:06 am)
Average temperature yesterday: 64 °F

High & Low Weather Summary for the Past Weeks

 TemperatureHumidityPressure
High88 °F (Apr 21, 1:59 pm)97% (Apr 25, 7:41 am)30.43 "Hg (Apr 25, 7:41 am)
Low44 °F (Apr 14, 4:59 am)27% (Apr 16, 5:59 pm)29.61 "Hg (Apr 25, 3:59 pm)
Average65 °F72%30.09 "Hg
* Reported Apr 11 4:59 am — Apr 26 4:59 am, Norfolk, Weather by CustomWeather, © 2017

Note: Actual official high and low records may vary slightly from our data, if they occured in-between our weather recording intervals... More about our weather records

Advertising

Norfolk Weather History for the Previous 24 Hours

Scroll right to see more
 ConditionsComfort  
Time TempWeatherWind HumidityBarometerVisibility
4:59 am
Wed, Apr 26
61 °FLow clouds.14 mph93%29.70 "Hg10 mi
3:59 am62 °FFog.12 mph90%29.68 "Hg3 mi
3:14 am62 °FFog.8 mph93%29.67 "Hg5 mi
2:59 am62 °FLight rain. Fog.9 mph93%29.67 "Hg6 mi
2:19 am63 °FLight rain. Fog.10 mph90%29.67 "Hg6 mi
1:59 am63 °FLight rain. Fog.13 mph90%29.68 "Hg5 mi
12:59 am64 °FRain. Fog.12 mph90%29.68 "Hg3 mi
11:59 pm
Tue, Apr 25
63 °FRain. Fog.8 mph90%29.67 "Hg3 mi
11:22 pm64 °FRain. Fog.8 mph90%29.68 "Hg3 mi
10:59 pm64 °FRain. Fog.7 mph90%29.68 "Hg3 mi
9:59 pm64 °FRain. Fog.10 mph90%29.67 "Hg3 mi
8:59 pm65 °FMostly cloudy.8 mph91%29.65 "Hg9 mi
7:59 pm64 °FOvercast.6 mph90%29.65 "Hg10 mi
6:59 pm65 °FCloudy.6 mph87%29.64 "Hg10 mi
5:59 pm66 °FCloudy.5 mph84%29.62 "Hg9 mi
5:39 pm66 °FCloudy.5 mph84%29.64 "Hg9 mi
4:59 pm70 °FCloudy.12 mph73%29.62 "Hg10 mi
3:59 pm67 °FLight rain. Cloudy.12 mph81%29.61 "Hg6 mi
1:59 pm77 °FBroken clouds.8 mph58%29.64 "Hg10 mi
12:59 pm75 °FBroken clouds.13 mph60%29.66 "Hg10 mi
11:59 am73 °FBroken clouds.12 mph59%29.66 "Hg10 mi
10:59 am71 °FBroken clouds.8 mph76%29.64 "Hg10 mi
10:23 am68 °FFog.12 mph84%29.63 "Hg6 mi
9:59 am66 °FFog.8 mph90%29.62 "Hg6 mi
9:42 am64 °FFog.12 mph94%29.62 "Hg5 mi
8:59 am62 °FFog.18 mph93%29.62 "Hg3 mi
7:59 am61 °FLight rain. Fog.20 mph97%29.62 "Hg4 mi
7:41 am61 °FFog.24 mph97%29.63 "Hg4 mi
7:34 am61 °FLight rain. Fog.25 mph93%29.63 "Hg2 mi
6:59 am61 °FLight rain. Fog.21 mph93%29.64 "Hg3 mi
6:42 am61 °FLight rain. Fog.20 mph93%29.65 "Hg3 mi
Weather by CustomWeather, © 2017

See weather overviewHow to use our weather pages